Hourly Data Report for May 30, 2012

All times are specified in Local Standard Time (LST). Add 1 hour to adjust for Daylight Saving Time where and when it is observed.

SAULT STE MARIE A
ONTARIO

46°29'06.000" N
84°30'35.000" W
192.00 m
6057591
71260
YAM

Download Data

Hourly Data (May 2012)
Hourly Data Report for May 30, 2012
Temp Definition
°C
Dew Point Temp Definition
°C
Rel Hum Definition
%
Wind Dir Definition
10's deg

Wind Spd Definition
km/h
Visibility Definition
km
Stn Press Definition
kPa
Hmdx Definition


Wind Chill Definition


Weather Definition


TIME
00:00 Legend Double Dagger 9.7 9.3 97 28 10 10.0 98.44     LegendNANA
01:00 Legend Double Dagger 9.2 8.8 97 31 19 10.0 98.49     Mostly Cloudy
02:00 Legend Double Dagger 8.1 7.8 98 31 22 6.4 98.46     Fog
03:00 Legend Double Dagger 7.1 7.1 100 32 17 3.2 98.52     Fog
04:00 Legend Double Dagger 6.7 6.3 97 28 24 10.0 98.57     Cloudy
05:00 Legend Double Dagger 6.2 5.2 93 29 28 10.0 98.62     LegendNANA
06:00 Legend Double Dagger 5.7 5.3 97 29 22 10.0 98.68     LegendNANA
07:00 Legend Double Dagger 6.2 5.8 97 30 24 10.0 98.73     Cloudy
08:00 Legend Double Dagger 6.8 5.3 90 29 30 10.0 98.80     LegendNANA
09:00 Legend Double Dagger 7.7 5.4 85 30 28 10.0 98.79     LegendNANA
10:00 Legend Double Dagger 7.2 4.7 84 30 26 10.0 98.89     Mostly Cloudy
11:00 Legend Double Dagger 7.1 4.1 81 29 28 10.0 98.94     LegendNANA
12:00 Legend Double Dagger 7.2 4.2 81 30 35 10.0 98.93     LegendNANA
13:00 Legend Double Dagger 7.5 3.8 77 31 33 10.0 98.99     Mostly Cloudy
14:00 Legend Double Dagger 7.7 3.8 76 31 36 10.0 99.03     LegendNANA
15:00 Legend Double Dagger 8.1 4.1 76 30 35 10.0 99.04     LegendNANA
16:00 Legend Double Dagger 9.0 4.3 72 30 37 10.0 99.08     Mainly Clear
17:00 Legend Double Dagger 8.5 4.3 75 30 33 10.0 99.09     LegendNANA
18:00 Legend Double Dagger 8.3 4.2 75 31 35 10.0 99.07     LegendNANA
19:00 Legend Double Dagger 7.0 3.8 80 31 33 10.0 99.19     Mainly Clear
20:00 Legend Double Dagger 5.8 3.5 85 31 31 10.0 99.24     LegendNANA
21:00
22:00 Legend Double Dagger 5.0 3.3 89 31 21 10.0 99.26     Mainly Clear
23:00 Legend Double Dagger 4.7 3.7 93 31 22 10.0 99.26     LegendNANA

Notes on Data Quality.

Legend

  • E = Estimated
  • M = Missing
  • NA = Not Available
  • ‡ = Partner data that is not subject to review by the National Climate Archives
Date modified: